User: anonymous   Login
Location: Unspecified
(0.0000°N, 0.0000°E)
Time: 15:44:45
(UTC+02:00)
Language:

deb Delta 98 - Orbit

View from above orbital plane
View from above orbital plane
View from above satellite
View from above satellite

Ground track
Ground track

The orbit data is extracted from the following two-line orbital elements,

1 07145U 73086DK  23268.74244164 -.00000010  00000-0  39047-3 0  9992
2 07145 101.9973 176.9891 0314657 286.6801 131.2117 11.81544999151236
Epoch (UTC): 25 September 2023 17:49:06
Eccentricity: 0.0314657
inclination: 101.9973°
perigee height: 1508 km
apogee height: 2021 km
right ascension of ascending node: 176.9891°
argument of perigee: 286.6801°
revolutions per day: 11.81544999
mean anomaly at epoch: 131.2117°
orbit number at epoch: 15123

The dashed part of the orbit path shows where the satellite is in the earth's shadow,  

DLR